Weather in Svetlogorsk

Russia / Krasnoyarsk Krai     66°56′09″N   88°21′41″E
temp.,
°C
wind,
m/s
gust,
m/s
humid.,
%
clouds,
%
prec.,
mm/h
press.,
hPa
HPBL,
m
1 march, mon
mon101:00−37e12944 0.0 103219
04:00−38e22960 0.0 103119
07:00−38e22970 0.0 103119
10:00−37e22950 0.0 103031
13:00−33e23910 0.0 1029186
16:00−32e23921 0.0 1028168
19:00−36e23930 0.0 102819
22:00−37e33930 0.0 102719
2 march, tue
tue201:00−38e33930 0.0 102718
04:00−39e33930 0.0 102621
07:00−39e33930 0.0 102625
10:00−37e34920 0.0 102585
13:00−33e35910 0.0 1025182
16:00−31e45910 0.0 1025206
19:00−34e44900 0.0 102538
22:00−36e34870 0.0 102538
3 march, wed
wed301:00−37e44870 0.0 102544
04:00−37e44870 0.0 102547
07:00−37e44850 0.0 102557
10:00−35e45860 0.0 1024122
13:00−31e468613 0.0 1024210
16:00−30e578766 0.0 1024246
19:00−32e568570 0.0 1024100
22:00−32e568487 0.0 1023119
4 march, thu
thu401:00−31e598393 0.0 1023233
04:00−31e698299 0.0 1022245
07:00−30e6118199 0.0 1021282
10:00−29e71283100 0.0 1019320
13:00−26e71290100 0.0 1017390
16:00−23e71596100 0.2 1016453
19:00−23e71398100 0.8 1015438
22:00−23e61398100 0.8 1014396
5 march, fri
fri501:00−22e51298100 1.4 1014411
04:00−23e51097100 0.4 1013355
07:00−23e51097100 0.6 1012313
10:00−23e61094100 0.1 1011360
13:00−20e71295100 0.2 1010428
16:00−19e7139298 0.1 1009454
19:00−19e6149299 0.1 1008421
22:00−19e61495100 0.1 1007420